User: anonymous
Location: Unspecified
(0.0000°N, 0.0000°E)
Time: 09:44:57
(UTC+00:00)
Language:

FALCON 9 R/B - Orbit

View from above orbital plane
View from above orbital plane
View from above satellite
View from above satellite

Ground track
Ground track

The orbit data is extracted from the following two-line orbital elements,

1 37253U 10066K   14293.05217253  .00013757  00000-0  13731-2 0  2215
2 37253 034.5513 346.2369 4353915 277.9300 036.3160 06.76132851 93992
Epoch (UTC): 20 October 2014 01:15:07
Eccentricity: 0.4353915
inclination: 34.5513°
perigee height: 292 km
apogee height: 10579 km
right ascension of ascending node: 346.2369°
argument of perigee: 277.9300°
revolutions per day: 6.76132851
mean anomaly at epoch: 36.3160°
orbit number at epoch: 9399

The dashed part of the orbit path shows where the satellite is in the earth's shadow,  

DLR